Meteo Giornale » Osservazioni meteo Italia » Firenze-Peretola

ore: 16:50 - Osservazioni Meteo Firenze-Peretola
Lat. 43° 48' N Lon. 11° 12' E Alt. 40 metri s.l.m.

poco_nuvoloso Europe/Rome

23 °C

Poco Nuvoloso

Temp. 24 Ore

11 °C

23 °C

Nord

13 Km/h

Dew point 10 °C

Umidità 43 %

Visibilità  10 Km

Il sole sorge alle ore 07:05

Il sole tramonta alle ore 19:08

Data e Ora Cielo e Fenomeni T °C DP °C Um. % Pres. hPa Vis. km Vento km/h
Oggi h: 16:50 poco_nuvoloso Poco Nuvoloso 23 10 43 1017 10 N 13
Oggi h: 16:20 poco_nuvoloso Poco Nuvoloso 23 11 46 1017 10 NE 11.1
Oggi h: 15:50 poco_nuvoloso Poco Nuvoloso 23 10 43 1017 10 N 7.4
Oggi h: 15:20 poco_nuvoloso Poco Nuvoloso 23 10 43 1017 10 N/NE 13
Oggi h: 14:50 poco_nuvoloso Poco Nuvoloso 23 11 46 1018 10 N/NE 13
Oggi h: 14:20 poco_nuvoloso Poco Nuvoloso 23 11 46 1018 10 NE 14.8
Oggi h: 13:50 poco_nuvoloso Poco Nuvoloso 23 11 46 1018 10 N/NE 13
Oggi h: 13:20 poco_nuvoloso Poco Nuvoloso 22 12 53 1018 10 NE 16.7
Oggi h: 12:50 poco_nuvoloso Poco Nuvoloso 22 11 49 1018 10 NE 16.7
Oggi h: 12:20 poco_nuvoloso Poco Nuvoloso 21 12 56 1018 10 NE 11.1
Oggi h: 11:50 poco_nuvoloso Poco Nuvoloso 21 12 56 1018 10 N/NO 11.1
Oggi h: 11:20 poco_nuvoloso Poco Nuvoloso 20 11 56 1018 10 N 11.1
Oggi h: 10:20 sereno Sereno 19 12 63 1018 10 SO 7.4
Oggi h: 09:50 sereno Sereno 18 13 72 1018 10 N 5.5
Oggi h: 09:20 sereno Sereno 17 13 77 1018 10 N 3.7
Oggi h: 08:50 sereno Sereno 16 12 77 1018 10 N 3.7
Oggi h: 08:20 sereno Sereno 15 13 87 1018 10 N 1.8
Oggi h: 07:50 sereno Sereno 13 12 93 1018 10 N 1.8
Oggi h: 07:20 sereno Sereno 11 10 93 1018 10 NE 7.4
Oggi h: 06:50 sereno Sereno 12 11 93 1018 10 N 0
Oggi h: 06:20 sereno Sereno 12 11 93 1018 10 N 1.8
Oggi h: 05:50 sereno Sereno 13 11 87 1018 10 N 3.7
Oggi h: 05:20 sereno Sereno 13 11 87 1018 10 N 1.8
Oggi h: 04:50 sereno Sereno 12 11 93 1018 10 N/NE 11.1
Oggi h: 04:20 sereno Sereno 12 11 93 1018 8 N 1.8
Oggi h: 03:50 sereno Sereno 12 11 93 1018 8 E/NE 7.4
Oggi h: 03:20 sereno Sereno 13 12 93 1018 8 N 3.7
Oggi h: 02:50 sereno Sereno 12 11 93 1018 8 E/NE 9.3
Oggi h: 02:20 foschia Foschia 13 13 100 1018 5 N 1.8
Oggi h: 01:50 foschia Foschia 14 13 93 1018 5 N 3.7
Oggi h: 01:20 nebbia Banco di Nebbia 14 13 93 1019 2 N/NO 7.4
Oggi h: 00:50 nebbia Nebbia 13 13 100 1019 0.6 N 3.7
Oggi h: 00:20 nebbia Banco di Nebbia 14 13 93 1019 1 N 1.8
Ieri h: 23:50 poco_nuvoloso Poco Nuvoloso 14 13 93 1019 8 N 1.8
Ieri h: 23:20 poco_nuvoloso Poco Nuvoloso 14 13 93 1019 8 N 1.8
Ieri h: 22:50 nuvoloso Nuvoloso 14 14 100 1019 8 N 1.8
Ieri h: 22:20 nuvoloso Nuvoloso 15 14 93 1019 8 N 3.7
Ieri h: 21:50 nuvoloso Nuvoloso 16 15 93 1019 10 N 3.7
Ieri h: 21:20 molto_nuvoloso Molto Nuvoloso 16 15 93 1019 10 N 3.7
Ieri h: 20:50 molto_nuvoloso Molto Nuvoloso 16 15 93 1018 10 N 1.8
Ieri h: 20:20 molto_nuvoloso Molto Nuvoloso 16 16 100 1019 10 N 3.7
Ieri h: 19:50 molto_nuvoloso Molto Nuvoloso 17 16 93 1018 10 N 3.7
Ieri h: 19:20 molto_nuvoloso Molto Nuvoloso 17 16 93 1018 10 N 3.7
Ieri h: 18:50 molto_nuvoloso Molto Nuvoloso 17 16 93 1018 10 N 1.8
Ieri h: 17:50 molto_nuvoloso Molto Nuvoloso 19 16 82 1018 10 N 5.5